Weather History for Rogers, AR

Change the Weather History Date:

Monday, March 24, 2014

  Actual Average Record
Temperature  
Mean Temperature 39 °F -  
Max Temperature 48 °F 58 °F 77 °F (2007)
Min Temperature 30 °F 39 °F 26 °F (2006)
Degree Days  
Heating Degree Days 26    
Moisture  
Dew Point 26 °F    
Average Humidity 62    
Maximum Humidity 87    
Minimum Humidity 33    
Precipitation  
Precipitation 0.00 in - - ()
Sea Level Pressure  
Sea Level Pressure 30.22 in    
Wind  
Wind Speed 8 mph (NE)    
Max Wind Speed 13 mph    
Max Gust Speed 21 mph    
Visibility 10 miles    
Events Rain    
Averages and records for this station are not official NWS values.
T = Trace of Precipitation, MM = Missing Value Source: NWS Daily Summary

Daily Weather History Graph

Daily Weather History Graph

Search for Another Location

Airport:

Trip Planner

Search our weather history database for the weather conditions in past years. The results will help you decide how hot, cold, wet, or windy it might be!

Date:

Astronomy

Mar. 24, 2014 Rise Set
Actual Time 7:14 AM CDT 7:31 PM CDT
Civil Twilight 6:48 AM CDT 7:57 PM CDT
Nautical Twilight 6:18 AM CDT 8:27 PM CDT
Astronomical Twilight 5:47 AM CDT 8:58 PM CDT
Moon 2:35 AM CDT (3/24) 1:07 PM CDT (3/24)
Length of Visible Light 13h 09m
Length of Day
12h 17m
Last Quarter, 43% of the Moon is Illuminated
Mar 24
Last Quarter
Mar 30
New
Apr 7
First Quarter
Apr 15
Full
Apr 22
Last Quarter

Hourly Weather History & Observations

Time (CDT) Temp. Windchill Dew Point Humidity Pressure Visibility Wind Dir Wind Speed Gust Speed Precip Events Conditions
12:57 AM 36.0 °F 31.1 °F 17.1 °F 46% 30.28 in 10.0 mi East 5.8 mph - N/A   Clear
1:57 AM 36.0 °F 30.3 °F 17.1 °F 46% 30.29 in 10.0 mi East 6.9 mph - N/A   Clear
2:57 AM 35.1 °F 29.3 °F 19.9 °F 54% 30.27 in 10.0 mi East 6.9 mph - N/A   Clear
3:57 AM 34.0 °F 26.6 °F 25.0 °F 70% 30.25 in 10.0 mi East 9.2 mph - N/A   Clear
4:57 AM 32.0 °F 25.6 °F 26.1 °F 79% 30.24 in 10.0 mi ESE 6.9 mph - N/A   Clear
5:57 AM 32.0 °F 28.7 °F 26.1 °F 79% 30.25 in 10.0 mi East 3.5 mph - N/A   Clear
6:57 AM 30.9 °F 24.3 °F 26.1 °F 82% 30.25 in 10.0 mi East 6.9 mph - N/A   Clear
7:57 AM 33.1 °F 26.9 °F 24.1 °F 70% 30.26 in 10.0 mi East 6.9 mph - N/A   Overcast
8:57 AM 37.9 °F 32.1 °F 25.0 °F 60% 30.27 in 10.0 mi ESE 8.1 mph - N/A   Mostly Cloudy
9:57 AM 42.1 °F 35.2 °F 21.0 °F 43% 30.24 in 10.0 mi SE 12.7 mph - N/A   Overcast
10:57 AM 44.1 °F 38.1 °F 21.0 °F 40% 30.23 in 10.0 mi SE 11.5 mph - N/A   Overcast
11:57 AM 48.0 °F - 21.0 °F 34% 30.20 in 10.0 mi SE 12.7 mph - N/A   Mostly Cloudy
12:57 PM 48.9 °F - 21.0 °F 33% 30.18 in 10.0 mi South 11.5 mph - N/A   Mostly Cloudy
1:57 PM 48.9 °F - 21.9 °F 35% 30.17 in 10.0 mi SW 4.6 mph - N/A   Overcast
2:57 PM 48.9 °F - 23.0 °F 36% 30.14 in 10.0 mi WNW 9.2 mph - N/A   Overcast
3:57 PM 48.9 °F - 25.0 °F 39% 30.13 in 10.0 mi West 8.1 mph - N/A   Overcast
4:57 PM 48.9 °F - 25.0 °F 39% 30.12 in 10.0 mi WNW 8.1 mph - N/A   Overcast
5:57 PM 48.9 °F - 26.1 °F 41% 30.13 in 10.0 mi NW 6.9 mph - N/A   Overcast
6:57 PM 44.1 °F 38.6 °F 32.0 °F 63% 30.17 in 10.0 mi North 10.4 mph 20.7 mph 0.00 in   Overcast
7:57 PM 41.0 °F 35.8 °F 33.1 °F 73% 30.20 in 10.0 mi North 8.1 mph 17.3 mph 0.00 in   Overcast
8:48 PM 39.2 °F 32.5 °F 33.8 °F 81% 30.20 in 10.0 mi NNW 10.4 mph - 0.00 in Rain Light Rain
8:57 PM 39.2 °F 33.0 °F 33.8 °F 81% 30.20 in 10.0 mi NNW 9.2 mph - 0.00 in Rain Light Rain
8:59 PM 37.9 °F 32.1 °F 34.0 °F 86% 30.23 in 10.0 mi NNW 8.1 mph - 0.00 in Rain Light Rain
9:36 PM 35.6 °F 29.9 °F 32.0 °F 87% 30.22 in 10.0 mi NNW 6.9 mph - 0.00 in   Overcast
9:57 PM 36.0 °F 30.3 °F 32.0 °F 86% 30.24 in 9.0 mi NNW 6.9 mph - 0.00 in   Overcast
10:15 PM 35.6 °F 28.6 °F 32.0 °F 87% 30.22 in 10.0 mi North 9.2 mph - N/A   Overcast
10:57 PM 35.1 °F 28.6 °F 30.9 °F 85% 30.25 in 10.0 mi North 8.1 mph - N/A   Overcast
11:57 PM 35.1 °F 29.3 °F 30.9 °F 85% 30.26 in 10.0 mi North 6.9 mph - N/A   Overcast